Regional Weather Roundup
Issued by NWS

Home | Current Version | Previous Version | Graphics & Text | Print | Product List | Glossary On
Versions: 1 2 3 4 5 6 7 8 9 10 11 12 13 14 15 16 17 18 19 20 21 22 23 24 25 26 27 28 29 30 31 32 33 34 35 36 37 38 39 40 41 42 43 44 45 46 47 48 49 50
000
ASUS43 KOAX 281010
RWRNE

WEATHER ROUNDUP FOR NEBRASKA
NATIONAL WEATHER SERVICE OMAHA NE
500 AM CDT WED SEP 28 2016

NOTES: SATELLITE DATA IS BEING USED TO AUGMENT CLOUD COVER ABOVE
       12000 FEET.
       "FAIR" INDICATES FEW OR NO CLOUDS BELOW 12,000 FEET WITH NO
       SIGNIFICANT WEATHER AND/OR OBSTRUCTIONS TO VISIBILITY.

  * THESE STATIONS DO NOT REPORT WEATHER SUCH AS RAIN...SNOW OR FOG.

NEZ001>004-019>022-054>056-281100-
NEBRASKA PANHANDLE

CITY           SKY/WX    TMP DP  RH WIND       PRES   REMARKS
SCOTTSBLUFF    CLEAR     49  40  71 NW9       30.20R
ALLIANCE       CLEAR     42  39  89 W8        30.18R
CHADRON        CLEAR     46  41  82 W3        30.17R
KIMBALL        CLEAR     45  37  72 NW8       30.23R
SIDNEY         CLEAR     43  37  79 NW8       30.20R
$$

NEZ057>060-069>072-079>082-281100-
SOUTHWEST NEBRASKA

CITY           SKY/WX    TMP DP  RH WIND       PRES   REMARKS
NORTH PLATTE   CLEAR     42  39  89 W3        30.11R
IMPERIAL       CLEAR     49  38  65 NW5       30.13R
LEXINGTON      CLEAR     45  41  88 W5        30.07R
MCCOOK         CLEAR     46  41  82 W6        30.08R
OGALLALA       CLEAR     43  40  88 W5        30.14R
$$

NEZ005>010-023>029-035>040-094-281100-
NORTH CENTRAL NEBRASKA

CITY           SKY/WX    TMP DP  RH WIND       PRES   REMARKS
VALENTINE      CLEAR     42  38  85 NW6       30.13R
AINSWORTH      CLEAR     45  42  90 NW5       30.12R
BROKEN BOW     CLEAR     44  40  85 N5        30.08R
O`NEILL        CLEAR     45  41  87 N7        30.10R
ORD            CLEAR     47  42  83 N7        30.06R
THEDFORD       CLEAR     45  42  88 CALM      30.13R
$$

NEZ041-046>049-061>064-073>077-083>087-281100-
SOUTH CENTRAL NEBRASKA

CITY           SKY/WX    TMP DP  RH WIND       PRES   REMARKS
GRAND ISLAND   CLEAR     50  45  83 N8        30.05R
AURORA         CLEAR     50  47  89 N8        30.04R
HASTINGS       CLEAR     51  44  77 N5        30.05R
HEBRON         CLEAR     52  46  82 N3        30.00R
HOLDREGE       CLEAR     49  43  78 NW5       30.06R
KEARNEY *      CLEAR     48  41  76 NW6       30.05R
YORK           CLEAR     50  46  87 N6        30.04R
$$

NEZ011>018-030>034-042>045-281100-
NORTHEAST NEBRASKA

CITY           SKY/WX    TMP DP  RH WIND       PRES   REMARKS
NORFOLK        CLEAR     45  38  76 N8        30.05R
ALBION         CLEAR     45  42  89 NW5       30.06R
BLAIR          CLEAR     50  43  76 N8        29.99R
FREMONT        CLEAR     49  43  80 N3        30.02R
TEKAMAH        PTCLDY    46  40  79 N9        30.02R
WAYNE          CLOUDY    42  39  86 CALM      30.05R
$$

NEZ050>053-065>068-078-088>093-281100-
SOUTHEAST NEBRASKA

CITY           SKY/WX    TMP DP  RH WIND       PRES   REMARKS
LINCOLN        CLEAR     53  45  74 N9        30.01R
OMAHA EPPLEY   CLEAR     48  43  82 N7        29.99R
BEATRICE       CLEAR     56  48  73 N9        29.97R
FALLS CITY     CLEAR     54  49  83 NW7       29.93R
NEBRASKA CITY  CLEAR     54  40  60 N7        29.96R
PLATTSMOUTH    PTCLDY    54  42  65 N6        29.98R
$$

NEZ044-045-051>053-067-281100-
OMAHA AREA

CITY           SKY/WX    TMP DP  RH WIND       PRES   REMARKS
OMAHA EPPLEY   CLEAR     48  43  82 N7        29.99R
BLAIR          CLEAR     50  43  76 N8        29.99R
FREMONT        CLEAR     49  43  80 N3        30.02R
MILLARD        CLEAR     55  43  65 CALM      29.99R
OFFUTT AFB     CLEAR     53  44  73 N7        29.97R
PLATTSMOUTH    PTCLDY    54  42  65 N6        29.98R
WAHOO          FAIR      48  44  85 NW6       30.01R
$$



USA.gov is the U.S. government's official web portal to all federal, state and local government web resources and services.